Regional Weather Roundup
Issued by NWS Jackson, KY

Home | Current Version | Previous Version | Text Only | Print | Product List | Glossary Off
Versions: 1 2 3 4 5 6 7 8 9 10 11 12 13 14 15 16 17 18 19 20 21 22 23 24 25 26 27 28

000
ASUS43 KJKL 241710
RWRJKL

EAST KENTUCKY HOURLY WEATHER ROUNDUP
NATIONAL WEATHER SERVICE JACKSON KY
100 PM EDT MON APR 24 2017

NOTE: "FAIR" INDICATES FEW OR NO CLOUDS BELOW 12,000 FEET WITH
NO SIGNIFICANT WEATHER AND/OR OBSTRUCTIONS TO VISIBILITY.

* THESE REPORTS ARE NOT UNDER NWS QUALITY CONTROL AND MAY NOT
  REPORT WEATHER SUCH AS PRECIPITATION AND FOG.

KYZ079-080-083-085-087-088-110-112-115-119-120-241800
...EASTERN KENTUCKY...

CITY           SKY/WX    TMP DP  RH WIND       PRES   REMARKS
JACKSON        CLOUDY    59  50  72 VRB6      29.87F
LONDON         CLOUDY    57  49  74 N8        29.86F
SOMERSET*      CLOUDY    59  50  72 E5        29.87F
MONTICELLO*    CLOUDY    58  53  84 N12G22    29.87F
WILLIAMSBURG*  CLOUDY    57  54  88 N6        29.85
MIDDLESBORO*   CLOUDY    65  53  65 CALM      29.82F
HARLAN APT*    CLOUDY    64  52  63 N3        29.82S
PIKE CO APT*   CLOUDY    59  52  76 NE9       29.87S
BIG SANDY APT* CLOUDY    60  51  72 E9        29.88S
MOREHEAD APT*  CLOUDY    63  48  59 E12       29.90S
$$

KYZ035-036-041-042-044-050-067-078-099-241800
...CENTRAL KENTUCKY...

CITY           SKY/WX    TMP DP  RH WIND       PRES   REMARKS
MT STERLING*   MOSUNNY   64  50  59 E15       29.88F
FLEMING/MASON* CLOUDY    63  50  64 E14       29.90S
DANVILLE*      MOSUNNY   64  54  68 E8        29.85F
LEXINGTON      MOSUNNY   68  52  56 NE13      29.85F
FRANKFORT      MOSUNNY   69  47  45 NE10      29.85F
LOUISVILLE     MOSUNNY   72  51  47 E12       29.84F
LEBANON*         N/A     68  54  60 E8        29.84F
GLASGOW*       PTSUNNY   64  53  67 NW3       29.85S
BOWLING GREEN  CLOUDY    65  54  67 W6        29.85F
$$

KYZ091>093-OHZ055-061-077-WVZ005-015-034-035-042-241800
...SOUTHERN OHIO/WEST VIRGINIA...

CITY           SKY/WX    TMP DP  RH WIND       PRES   REMARKS
COVINGTON      SUNNY     68  43  40 NE13      29.89F
COLUMBUS       MOSUNNY   72  48  42 E15       29.91F
DAYTON         MOSUNNY   70  44  39 E14       29.93F
WILMINGTON     SUNNY     67  50  54 E14G20    29.91F
HUNTINGTON     CLOUDY    60  50  69 NE9       29.89S
CHARLESTON     CLOUDY    60  50  69 N7        29.90F
PINEVILLE*     CLOUDY    58  50  73 MISG      29.95S
BECKLEY        CLOUDY    52  47  83 E10G20    29.92S
BLUEFIELD      CLOUDY    49  46  90 E8G18     29.91F
LOGAN CO APT*  CLOUDY    61  50  67 SE7       29.89S
$$

VAZ002-007-008-TNZ017-027-036-066-071-241800
...SOUTHWEST VIRGINIA/EAST TENNESSEE...

CITY           SKY/WX    TMP DP  RH WIND       PRES   REMARKS
WISE*          CLOUDY    55  54  94 NE3       29.88S
JONESVILLE*    CLOUDY    64  50  59 E6        29.84S
ABINGDON*      CLOUDY    59  53  79 E13       29.86S
BRISTOL        PTSUNNY   63  52  67 VRB5      29.83S
MORRISTOWN*    CLOUDY    63  54  72 SE10      29.81S
KNOXVILLE      PTSUNNY   64  53  67 NE13      29.79F
LAFOLLETTE*    PTSUNNY   66  54  63 E6        29.83F
OAK RIDGE      PTSUNNY   66  51  58 E8        29.81F
CROSSVILLE     CLOUDY    58  52  80 CALM      29.83F
NASHVILLE      PTSUNNY   66  55  67 N10G17    29.85F
$$

...KEY TO REMARKS...
VSB - VISIBILITY IN MILES
WCI - WIND CHILL INDEX
HX  - HEAT INDEX

$$




USA.gov is the U.S. government's official web portal to all federal, state and local government web resources and services.